Change the Weather History Date:

Friday, January 18, 2013

  Actual Average Record
Temperature  
Mean Temperature 38 °F -  
Max Temperature 48 °F 51 °F 61 °F (2015)
Min Temperature 28 °F 30 °F 15 °F (2005)
Degree Days  
Heating Degree Days 26    
Moisture  
Dew Point 30 °F    
Average Humidity 82    
Maximum Humidity 100    
Minimum Humidity 31    
Precipitation  
Precipitation 0.02 in - - ()
Sea Level Pressure  
Sea Level Pressure 30.36 in    
Wind  
Wind Speed 8 mph (NNW)    
Max Wind Speed 15 mph    
Max Gust Speed 21 mph    
Visibility 10 miles    
Events Rain , Snow    
Averages and records for this station are not official NWS values.
T = Trace of Precipitation, MM = Missing Value Source: NWS Daily Summary

Daily Weather History Graph

Daily Weather History Graph

Search for Another Location

Airport or City:

Trip Planner

Search our weather history database for the weather conditions in past years. The results will help you decide how hot, cold, wet, or windy it might be!

Date:

Astronomy

Jan. 18, 2013 Rise Set
Actual Time 7:24 AM EST 5:32 PM EST
Civil Twilight 6:57 AM EST 6:00 PM EST
Nautical Twilight 6:26 AM EST 6:31 PM EST
Astronomical Twilight 5:55 AM EST 7:01 PM EST
Moon 11:21 AM EST (1/18) 12:03 AM EST (1/18)
Length of Visible Light 11h 02m
Length of Day
10h 08m
Waxing Crescent, 47% of the Moon is Illuminated
Jan 18
Waxing Crescent
Jan 18
First Quarter
Jan 26
Full
Feb 3
Last Quarter
Feb 10
New

Hourly Weather History & Observations

Time (EST) Temp. Windchill Dew Point Humidity Pressure Visibility Wind Dir Wind Speed Gust Speed Precip Events Conditions
12:00 AM 35.6 °F 28.6 °F 35.6 °F 100% 30.18 in 10.0 mi NNW 9.2 mph - N/A Rain Light Rain
12:01 AM 35.6 °F 28.6 °F 35.6 °F 100% 30.18 in 10.0 mi NNW 9.2 mph - N/A Rain Light Rain
12:06 AM 35.6 °F 28.0 °F 33.8 °F 93% 30.18 in 8.0 mi NNW 10.4 mph - N/A Rain Rain
12:16 AM 35.6 °F 28.6 °F 33.8 °F 93% 30.17 in 10.0 mi North 9.2 mph - N/A Rain , Snow Light Rain
12:29 AM 35.6 °F 28.6 °F 33.8 °F 93% 30.17 in 10.0 mi North 9.2 mph - N/A Rain Light Rain
12:46 AM 35.6 °F 29.2 °F 33.8 °F 93% 30.17 in 10.0 mi North 8.1 mph - N/A Rain Light Rain
12:51 AM 35.6 °F 29.2 °F 33.8 °F 93% 30.17 in 10.0 mi North 8.1 mph - N/A   Mostly Cloudy
12:55 AM 34.9 °F 27.7 °F 34.3 °F 98% 30.18 in 10.0 mi NNW 9.2 mph - 0.02 in   Mostly Cloudy
1:41 AM 35.6 °F 28.6 °F 35.6 °F 100% 30.23 in 10.0 mi NNW 9.2 mph - N/A   Mostly Cloudy
1:55 AM 35.8 °F 28.3 °F 35.1 °F 97% 30.25 in 10.0 mi NNW 10.4 mph - N/A   Mostly Cloudy
1:56 AM 35.6 °F 27.5 °F 35.6 °F 100% 30.25 in 10.0 mi NNW 11.5 mph - N/A   Mostly Cloudy
2:06 AM 35.6 °F 27.5 °F 35.6 °F 100% 30.25 in 10.0 mi NNW 11.5 mph - N/A   Mostly Cloudy
2:21 AM 35.6 °F 29.2 °F 35.6 °F 100% 30.27 in 10.0 mi NNW 8.1 mph - N/A   Mostly Cloudy
2:30 AM 35.6 °F 29.9 °F 35.6 °F 100% 30.25 in 10.0 mi NNW 6.9 mph - N/A   Mostly Cloudy
2:55 AM 35.6 °F 32.8 °F 34.7 °F 97% 30.26 in 10.0 mi NNW 3.5 mph - N/A   Partly Cloudy
3:55 AM 34.5 °F 29.4 °F 34.0 °F 98% 30.29 in 10.0 mi WNW 5.8 mph - N/A   Clear
4:55 AM 33.3 °F 30.2 °F 32.7 °F 98% 30.30 in 10.0 mi WNW 3.5 mph - N/A   Clear
5:55 AM 32.2 °F 27.7 °F 32.2 °F 100% 30.33 in 10.0 mi WNW 4.6 mph - N/A   Clear
6:55 AM 31.3 °F 25.6 °F 31.1 °F 99% 30.37 in 10.0 mi WNW 5.8 mph - N/A   Clear
7:55 AM 32.4 °F - 31.3 °F 96% 30.40 in 10.0 mi North 2.3 mph - N/A   Clear
8:55 AM 35.2 °F 30.3 °F 31.8 °F 87% 30.45 in 10.0 mi North 5.8 mph - N/A   Clear
9:55 AM 40.3 °F 35.5 °F 30.9 °F 69% 30.50 in 10.0 mi North 6.9 mph - N/A   Clear
10:55 AM 43.0 °F 36.4 °F 27.1 °F 54% 30.51 in 10.0 mi North 12.7 mph 20.7 mph N/A   Clear
11:55 AM 45.3 °F 39.3 °F 25.2 °F 45% 30.50 in 10.0 mi North 12.7 mph 19.6 mph N/A   Clear
12:55 PM 46.2 °F 39.8 °F 23.2 °F 40% 30.48 in 10.0 mi North 15.0 mph 20.7 mph N/A   Clear
1:55 PM 47.7 °F - 19.8 °F 33% 30.48 in 10.0 mi NNE 13.8 mph 17.3 mph N/A   Clear
2:55 PM 48.2 °F - 19.4 °F 32% 30.48 in 10.0 mi North 13.8 mph 19.6 mph N/A   Clear
3:56 PM 48.0 °F - 18.5 °F 31% 30.49 in 10.0 mi North 6.9 mph - N/A   Clear
4:55 PM 46.8 °F - 18.3 °F 32% 30.51 in 10.0 mi North 6.9 mph - N/A   Clear
5:55 PM 41.9 °F 39.0 °F 27.0 °F 55% 30.53 in 10.0 mi North 4.6 mph - N/A   Clear
6:55 PM 38.5 °F - 26.4 °F 62% 30.55 in 10.0 mi North 2.3 mph - N/A   Clear
7:55 PM 33.6 °F 29.4 °F 28.2 °F 81% 30.56 in 10.0 mi NNW 4.6 mph - N/A   Clear
8:55 PM 32.0 °F 28.7 °F 28.9 °F 88% 30.56 in 10.0 mi NNW 3.5 mph - N/A   Clear
9:55 PM 31.1 °F - 29.8 °F 95% 30.56 in 10.0 mi NW 1.2 mph - N/A   Clear
10:55 PM 29.1 °F - 27.9 °F 95% 30.54 in 10.0 mi NW 1.2 mph - N/A   Clear
11:55 PM 28.9 °F - 27.9 °F 96% 30.53 in 10.0 mi South 1.2 mph - N/A   Clear